Location: Bun Machan
(52.1403°N, 7.3744°W)
Time: 08:39:25
(UTC+00:00)

Okean 1-7 - Pass Details

Date: 14 July 2020
Orbit: 592 x 618 km, 82.5° (Epoch: 04 August)

Event Time Altitude Azimuth Distance (km) Brightness Sun altitude
Rises 02:47:41 0° 339° (NNW) 2,906 7.1 -10.8°
Reaches altitude 10° 02:50:15 10° 326° (NW) 1,995 6.0 -10.6°
Maximum altitude 02:53:45 23° 273° (W) 1,310 4.5 -10.3°
Enters shadow 02:56:35 13° 226° (SW) 1,782 4.8 -10.1°
